User: anonymous   Login
Location: *
(45.0500°N, 12.0500°E)
Time: 16:43:05
(UTC+00:00)
Language:

Cosmos 407 Rocket - Orbit

View from above orbital plane
View from above orbital plane
View from above satellite
View from above satellite

Ground track
Ground track

The orbit data is extracted from the following two-line orbital elements,

1  5175U 71035B   20184.82987025 -.00000024 +00000-0 +68066-6 0  9999
2  5175 074.0494 323.5660 0030872 257.6291 102.1407 14.37979685574476
Epoch (UTC): 02 July 2020 19:55:00
Eccentricity: 0.0030872
inclination: 74.0494°
perigee height: 743 km
apogee height: 787 km
right ascension of ascending node: 323.5660°
argument of perigee: 257.6291°
revolutions per day: 14.37979685
mean anomaly at epoch: 102.1407°
orbit number at epoch: 57447

The dashed part of the orbit path shows where the satellite is in the earth's shadow,  

DLR